Погода в Брускинское

Украина / Херсонская область     47°09′26″N   33°12′33″E
темп.,
°C
ветер,
м/с
пор.,
м/с
влажн.,
%
обл.,
%
осадки,
мм/ч
давл.,
гПа
погр.,
м
9 мая, вс
вс900:00+7ссз6127663 0.0 1016673
03:00+5сз411859 0.0 1018389
06:00+4сз512882 0.0 1020431
09:00+9ссз69585 0.0 10221115
12:00+13ссз79405 0.0 10232132
15:00+15ссз893696 0.0 10232518
18:00+14ссз574552 0.0 10241999
21:00+9с356261 0.0 102669
10 мая, пн
пн1000:00+7ссз34713 0.0 102754
03:00+6с34720 0.0 102745
06:00+5с33763 0.0 102859
09:00+12с45480 0.0 1028910
12:00+15с56355 0.0 10271933
15:00+16с56335 0.0 10252197
18:00+15с67405 0.0 10242116
21:00+10ссз49585 0.0 1024155
11 мая, вт
вт1100:00+8ссз49691 0.0 1022149
03:00+7ссз512736 0.0 1021265
06:00+8ссз71470100 0.0 1018503
09:00+10с61068100 0.0 1018583
12:00+12с7868100 0.0 1017678
15:00+13ссв6971100 0.0 10161026
18:00+14с5776100 0.1 1016821
21:00+9ссв48855 0.5 1016122
12 мая, ср
ср1200:00+7ссв34845 0.0 101556
03:00+6ссв2289100 0.0 101439
06:00+7с2391100 0.1 1013139
09:00+8св1182100 0.1 1013327
12:00+10ю1272100 0.0 1014565
15:00+14юз135658 0.0 10131129
18:00+15зюз125592 0.1 1013999
21:00+11в227210 0.1 101317
13 мая, чт
чт1300:00+9ююз33815 0.0 101336
03:00+9юв22935 0.0 101316
06:00+9в369567 0.0 1013136
09:00+16вюв68576 0.0 1012593
12:00+21юв7850100 0.0 10101382
15:00+23ююв684394 0.0 10091716
18:00+22ююв5650100 0.0 10091066
21:00+15юз236330 0.0 101024